EW7084 Weather Reports


Display with metric or nautical units.
time (UTC)temp
F
wind
direction
speed
MPH
gust
MPH
rain 1hr
in
rain 24hr
in
rain mn
in
humidity
%
barometer
mb
20260505013017 64 173 0.0 5.0 0.00 0.00 0.00 48 1007.6
20260505011508 65 190 1.0 5.0 0.00 0.00 0.00 47 1007.6
20260505010008 65 191 1.0 5.0 0.00 0.00 0.00 46 1007.5
20260505004522 66 191 1.0 7.0 0.00 0.00 0.00 44 1007.3
20260505003007 67 150 3.0 10.0 0.00 0.00 0.00 43 1007.3
20260505001506 68 160 4.0 8.0 0.00 0.00 0.00 41 1007.0
20260505000007 68 161 3.0 11.0 0.00 0.00 0.00 41 1006.9
20260504234506 69 165 4.0 8.0 0.00 0.00 0.00 40 1006.8
20260504233004 70 167 6.0 11.0 0.00 0.00 0.00 39 1006.6
20260504231503 70 148 5.0 18.0 0.00 0.00 0.00 37 1006.6
20260504230003 71 160 5.0 17.0 0.00 0.00 0.00 37 1006.5
20260504223001 72 184 5.0 11.0 0.00 0.00 0.00 36 1006.5
20260504221500 72 192 7.0 17.0 0.00 0.00 0.00 36 1006.6
20260504220100 72 148 9.0 21.0 0.00 0.00 0.00 35 1006.6
20260504214603 73 186 9.0 16.0 0.00 0.00 0.00 33 1006.4
20260504213101 73 163 5.0 15.0 0.00 0.00 0.00 34 1006.4
20260504211556 73 175 9.0 17.0 0.00 0.00 0.00 35 1006.5
20260504210052 73 160 5.0 17.0 0.00 0.00 0.00 35 1006.7
20260504204549 71 169 5.0 18.0 0.00 0.00 0.00 35 1007.0
20260504203047 71 149 10.0 19.0 0.00 0.00 0.00 36 1007.3
20260504201545 72 153 6.0 20.0 0.00 0.00 0.00 37 1007.5
20260504200045 71 259 8.0 16.0 0.00 0.00 0.00 37 1007.6
20260504194549 72 142 13.0 24.0 0.00 0.00 0.00 35 1007.9
20260504193045 71 166 9.0 21.0 0.00 0.00 0.00 36 1007.9
20260504191603 71 228 8.0 20.0 0.00 0.00 0.00 37 1008.1
20260504190038 71 186 8.0 14.0 0.00 0.00 0.00 36 1008.2
20260504184542 70 209 4.0 17.0 0.00 0.00 0.00 36 1008.4
20260504183031 70 189 10.0 21.0 0.00 0.00 0.00 38 1008.6
20260504181528 69 148 10.0 23.0 0.00 0.00 0.00 40 1008.8
20260504180032 70 171 6.0 21.0 0.00 0.00 0.00 39 1009.0
20260504174523 69 157 10.0 21.0 0.00 0.00 0.00 37 1009.1
20260504173019 68 194 7.0 24.0 0.00 0.00 0.00 38 1009.3
20260504171520 67 139 11.0 25.0 0.00 0.00 0.00 39 1009.3
20260504081559 37 155 1.0 5.0 0.00 0.00 0.00 78 1012.7
20260504044533 44 159 0.0 2.0 0.00 0.00 0.00 70 1012.7
20260504043023 45 159 0.0 3.0 0.00 0.00 0.00 69 1012.7
20260504041521 45 159 0.0 3.0 0.00 0.00 0.00 69 1012.7
20260504040020 46 159 0.0 2.0 0.00 0.00 0.00 68 1012.7
20260504034520 46 159 0.0 1.0 0.00 0.00 0.00 67 1012.7
20260504033017 47 159 0.0 2.0 0.00 0.00 0.00 65 1012.7
20260504031518 48 159 0.0 2.0 0.00 0.00 0.00 64 1012.7
20260504024517 49 159 0.0 0.0 0.00 0.00 0.00 62 1012.9
20260504023016 49 159 0.0 3.0 0.00 0.00 0.00 61 1013.0
20260504021516 50 159 0.0 2.0 0.00 0.00 0.00 60 1013.0
20260504020015 50 159 0.0 2.0 0.00 0.00 0.00 60 1013.0
20260504014515 50 159 0.0 1.0 0.00 0.00 0.00 61 1012.9